When you browse on this site, cookies collect data to enhance your experience and personalize the content and advertising you see.
Visit our Privacy Policy to learn more. By continuing to use the site, you agree to this use of cookies and data.

Hourly Weather Tymoshyne

Today, 13 July, Monday

Time Temperature Precipitation Wind Pressure Humidity
00:00 +21°C° 1.5 mm 2 mps 741 mmHg 79%
01:00 +20°C° 0.4 mm 2 mps 741 mmHg 82%
02:00 +20°C° 0.4 mm 2 mps 740 mmHg 84%
03:00 +19°C° 0.4 mm 2 mps 740 mmHg 87%
04:00 +20°C° 0 mm 2 mps 740 mmHg 86%
05:00 +20°C° 0 mm 2 mps 739 mmHg 85%
06:00 +20°C° 0 mm 2 mps 739 mmHg 85%
07:00 +22°C° 0 mm 3 mps 739 mmHg 81%
08:00 +24°C° 0 mm 3 mps 739 mmHg 78%
09:00 +26°C° 0 mm 3 mps 739 mmHg 75%
10:00 +27°C° 0 mm 3 mps 739 mmHg 69%
11:00 +28°C° 0 mm 2 mps 739 mmHg 63%
12:00 +30°C° 0 mm 2 mps 738 mmHg 57%
13:00 +30°C° 0 mm 2 mps 738 mmHg 56%
14:00 +30°C° 0 mm 2 mps 738 mmHg 54%
15:00 +30°C° 0 mm 2 mps 738 mmHg 53%
16:00 +28°C° 1.4 mm 4 mps 737 mmHg 61%
17:00 +26°C° 1.4 mm 7 mps 737 mmHg 70%
18:00 +23°C° 1.4 mm 9 mps 736 mmHg 78%
19:00 +22°C° 0.6 mm 7 mps 737 mmHg 79%
20:00 +21°C° 0.6 mm 5 mps 737 mmHg 80%
21:00 +21°C° 0.6 mm 3 mps 737 mmHg 81%
22:00 +21°C° 0 mm 2 mps 737 mmHg 82%
23:00 +20°C° 0 mm 2 mps 736 mmHg 83%

Tomorrow, 14 July, Tuesday

Time Temperature Precipitation Wind Pressure Humidity
00:00 +20°C° 0 mm 2 mps 736 mmHg 84%
01:00 +20°C° 0.1 mm 2 mps 736 mmHg 85%
02:00 +20°C° 0.1 mm 3 mps 736 mmHg 86%
03:00 +20°C° 0.1 mm 3 mps 736 mmHg 86%
04:00 +20°C° 0 mm 2 mps 736 mmHg 86%
05:00 +21°C° 0 mm 1 mps 736 mmHg 86%
06:00 +21°C° 0 mm 1 mps 736 mmHg 86%
07:00 +22°C° 0 mm 1 mps 736 mmHg 81%
08:00 +23°C° 0 mm 2 mps 736 mmHg 75%
09:00 +25°C° 0 mm 2 mps 737 mmHg 70%
10:00 +25°C° 0.4 mm 3 mps 737 mmHg 70%
11:00 +25°C° 0.4 mm 4 mps 737 mmHg 70%
12:00 +26°C° 0.4 mm 5 mps 736 mmHg 70%
13:00 +26°C° 0.3 mm 6 mps 736 mmHg 69%
14:00 +24°C° 0.3 mm 6 mps 736 mmHg 68%
15:00 +24°C° 0.3 mm 6 mps 736 mmHg 66%
16:00 +24°C° 0 mm 6 mps 736 mmHg 66%
17:00 +23°C° 0 mm 6 mps 737 mmHg 66%
18:00 +23°C° 0 mm 6 mps 737 mmHg 66%
19:00 +21°C° 0.1 mm 5 mps 737 mmHg 73%
20:00 +20°C° 0.1 mm 5 mps 738 mmHg 79%
21:00 +18°C° 0.1 mm 4 mps 738 mmHg 85%
22:00 +17°C° 0 mm 4 mps 738 mmHg 87%
23:00 +15°C° 0 mm 4 mps 738 mmHg 88%

Day after tomorrow, 15 July, Wednesday

Time Temperature Precipitation Wind Pressure Humidity
00:00 +15°C° 0 mm 5 mps 738 mmHg 89%
01:00 +14°C° 0 mm 5 mps 738 mmHg 88%
02:00 +14°C° 0 mm 5 mps 739 mmHg 87%
03:00 +14°C° 0 mm 5 mps 739 mmHg 86%
04:00 +14°C° 0 mm 6 mps 739 mmHg 85%
05:00 +15°C° 0 mm 6 mps 739 mmHg 83%
06:00 +15°C° 0 mm 6 mps 739 mmHg 82%
07:00 +15°C° 0 mm 6 mps 740 mmHg 81%
08:00 +16°C° 0 mm 6 mps 740 mmHg 81%
09:00 +17°C° 0 mm 6 mps 740 mmHg 80%
10:00 +17°C° 0.2 mm 6 mps 741 mmHg 79%
11:00 +17°C° 0.2 mm 6 mps 741 mmHg 78%
12:00 +19°C° 0.2 mm 6 mps 742 mmHg 77%
13:00 +20°C° 0 mm 6 mps 742 mmHg 69%
14:00 +22°C° 0 mm 6 mps 742 mmHg 62%
15:00 +23°C° 0 mm 6 mps 742 mmHg 54%
16:00 +23°C° 0.1 mm 5 mps 742 mmHg 57%
17:00 +22°C° 0.1 mm 5 mps 742 mmHg 60%
18:00 +22°C° 0.1 mm 5 mps 742 mmHg 62%
19:00 +20°C° 0 mm 5 mps 743 mmHg 64%
20:00 +19°C° 0 mm 4 mps 743 mmHg 67%
21:00 +17°C° 0 mm 3 mps 743 mmHg 69%
22:00 +16°C° 0 mm 3 mps 743 mmHg 72%
23:00 +14°C° 0 mm 3 mps 743 mmHg 76%

16 July, Thursday

Time Temperature Precipitation Wind Pressure Humidity
00:00 +14°C° 0 mm 3 mps 743 mmHg 79%
01:00 +13°C° 0 mm 3 mps 743 mmHg 82%
02:00 +13°C° 0 mm 3 mps 743 mmHg 84%
03:00 +12°C° 0 mm 3 mps 743 mmHg 86%
04:00 +13°C° 0 mm 3 mps 743 mmHg 84%
05:00 +13°C° 0 mm 4 mps 743 mmHg 83%
06:00 +13°C° 0 mm 4 mps 743 mmHg 81%
07:00 +15°C° 0 mm 5 mps 744 mmHg 73%
08:00 +16°C° 0 mm 5 mps 744 mmHg 65%
09:00 +19°C° 0 mm 5 mps 744 mmHg 57%
10:00 +20°C° 0 mm 5 mps 744 mmHg 54%
11:00 +21°C° 0 mm 5 mps 744 mmHg 51%
12:00 +22°C° 0 mm 5 mps 744 mmHg 47%
13:00 +23°C° 0 mm 5 mps 744 mmHg 47%
14:00 +23°C° 0 mm 5 mps 744 mmHg 46%
15:00 +25°C° 0 mm 5 mps 744 mmHg 45%
16:00 +23°C° 0 mm 5 mps 744 mmHg 47%
17:00 +23°C° 0 mm 4 mps 744 mmHg 49%
18:00 +23°C° 0 mm 4 mps 743 mmHg 50%
19:00 +21°C° 0 mm 3 mps 743 mmHg 57%
20:00 +19°C° 0 mm 2 mps 744 mmHg 63%
21:00 +18°C° 0 mm 1 mps 744 mmHg 69%
22:00 +18°C° 0 mm 1 mps 744 mmHg 71%
23:00 +16°C° 0 mm 1 mps 743 mmHg 73%

17 July, Friday

Time Temperature Precipitation Wind Pressure Humidity
00:00 +15°C° 0 mm 1 mps 743 mmHg 75%
01:00 +15°C° 0 mm 1 mps 743 mmHg 77%
02:00 +15°C° 0 mm 1 mps 743 mmHg 79%
03:00 +14°C° 0 mm 1 mps 743 mmHg 81%
04:00 +15°C° 0 mm 1 mps 743 mmHg 81%
05:00 +15°C° 0 mm 1 mps 743 mmHg 82%
06:00 +15°C° 0 mm 1 mps 743 mmHg 82%
07:00 +17°C° 0 mm 2 mps 744 mmHg 75%
08:00 +19°C° 0 mm 2 mps 744 mmHg 67%
09:00 +20°C° 0 mm 2 mps 744 mmHg 60%
10:00 +23°C° 0 mm 2 mps 744 mmHg 56%
11:00 +24°C° 0 mm 2 mps 744 mmHg 51%
12:00 +25°C° 0 mm 3 mps 744 mmHg 47%
13:00 +25°C° 0 mm 3 mps 744 mmHg 47%
14:00 +25°C° 0 mm 3 mps 744 mmHg 47%
15:00 +25°C° 0 mm 3 mps 743 mmHg 48%
16:00 +25°C° 0 mm 3 mps 743 mmHg 49%
17:00 +25°C° 0 mm 3 mps 743 mmHg 51%
18:00 +25°C° 0 mm 3 mps 743 mmHg 52%
19:00 +22°C° 0 mm 3 mps 743 mmHg 58%
20:00 +20°C° 0 mm 2 mps 744 mmHg 64%
21:00 +19°C° 0 mm 2 mps 744 mmHg 70%
22:00 +18°C° 0 mm 2 mps 744 mmHg 73%
23:00 +18°C° 0 mm 2 mps 744 mmHg 76%

18 July, Saturday

Time Temperature Precipitation Wind Pressure Humidity
00:00 +17°C° 0 mm 2 mps 744 mmHg 79%
01:00 +16°C° 0 mm 2 mps 744 mmHg 82%
02:00 +16°C° 0 mm 2 mps 744 mmHg 84%
03:00 +16°C° 0 mm 1 mps 744 mmHg 86%
04:00 +16°C° 0 mm 1 mps 744 mmHg 86%
05:00 +16°C° 0 mm 1 mps 744 mmHg 85%
06:00 +18°C° 0 mm 1 mps 744 mmHg 84%
07:00 +19°C° 0 mm 2 mps 744 mmHg 77%
08:00 +20°C° 0 mm 2 mps 745 mmHg 70%
09:00 +23°C° 0 mm 2 mps 745 mmHg 63%
10:00 +24°C° 0 mm 2 mps 745 mmHg 57%
11:00 +25°C° 0 mm 3 mps 745 mmHg 52%
12:00 +27°C° 0 mm 3 mps 745 mmHg 46%
13:00 +27°C° 0 mm 3 mps 745 mmHg 44%
14:00 +28°C° 0 mm 3 mps 744 mmHg 43%
15:00 +28°C° 0 mm 3 mps 744 mmHg 41%
16:00 +28°C° 0 mm 3 mps 744 mmHg 43%
17:00 +27°C° 0 mm 3 mps 744 mmHg 44%
18:00 +27°C° 0 mm 3 mps 744 mmHg 46%
19:00 +25°C° 0 mm 2 mps 744 mmHg 53%
20:00 +23°C° 0 mm 2 mps 744 mmHg 61%
21:00 +20°C° 0 mm 2 mps 744 mmHg 68%
22:00 +19°C° 0 mm 2 mps 744 mmHg 72%
23:00 +19°C° 0 mm 2 mps 744 mmHg 76%
Show more